Flag for U.S.A. Weather past 2 weeks in Fort Myers, Florida, U.S.A.

Now
91 °F

Scattered clouds.


Feels Like: 103 °F
Forecast: 77 / 92 °F
Wind: 13 mph from Northwest

Location: Page Field

Current Time: Aug 22, 2014 at 7:37:39 PM

Latest Report: Aug 22, 2014 at 6:53 PM


Visibility: 10 mi

Pressure: 29.97 "Hg

Humidity: 61%

Dew point: 76 °F

Location of Fort MyersLocation

Historic Weather in Fort Myers — Graph

°F

Fort Myers temperature yesterday

Maximum temperature yesterday: 95 °F (at 2:53 PM)
Minimum temperature yesterday: 77 °F (at 3:53 AM)
Average temperature yesterday: 84 °F

Past Weeks' High & Low Weather Summary

 TemperatureHumidityPressure
High96 °F (Aug 19, 3:53 PM)100% (Aug 15, 7:53 PM)30.13 "Hg (Aug 15, 7:53 PM)
Low72 °F (Aug 15, 6:53 PM)40% (Aug 18, 2:53 PM)29.95 "Hg (Aug 7, 5:53 PM)
Average83 °F75%30.04 "Hg
* Reported Aug 7 5:53 PM — Aug 22 5:53 PM, Fort Myers, Weather by CustomWeather, © 2014

Note: Actual official high and low records may vary slightly from our data, if they occured in-between our weather recording intervals... More about our weather records

Advertising

Fort Myers weather history for previous 24 hours

 ConditionsComfort  
Time TempWeatherWind HumidityBarometerVisibility
5:53 PM
Aug 22
93 °FPartly sunny.5 mph56%29.97 "Hg10 mi
4:53 PM95 °FPassing clouds.No wind40%29.98 "Hg10 mi
3:53 PM95 °FSunny.No wind40%30.00 "Hg10 mi
2:53 PM95 °FPartly sunny.6 mph44%30.02 "Hg10 mi
1:53 PM94 °FSunny.3 mph46%30.04 "Hg10 mi
12:53 PM91 °FScattered clouds.5 mph52%30.06 "Hg10 mi
11:53 AM90 °FPassing clouds.No wind54%30.08 "Hg10 mi
10:53 AM88 °FSunny.5 mph61%30.09 "Hg10 mi
9:53 AM86 °FSunny.3 mph70%30.09 "Hg10 mi
8:53 AM82 °FSunny.3 mph79%30.08 "Hg10 mi
7:53 AM78 °FClear.No wind87%30.07 "Hg10 mi
6:53 AM77 °FClear.No wind90%30.05 "Hg10 mi
5:53 AM77 °FClear.3 mph90%30.04 "Hg10 mi
4:53 AM77 °FClear.No wind90%30.04 "Hg10 mi
3:53 AM78 °FClear.3 mph87%30.04 "Hg10 mi
2:53 AM78 °FClear.3 mph90%30.06 "Hg10 mi
1:53 AM79 °FClear.3 mph82%30.09 "Hg10 mi
12:53 AM81 °FClear.No wind79%30.11 "Hg10 mi
11:53 PM
Aug 21
82 °FClear.No wind70%30.12 "Hg10 mi
10:53 PM82 °FClear.No wind70%30.11 "Hg10 mi
9:53 PM83 °FPassing clouds.3 mph68%30.10 "Hg10 mi
8:53 PM83 °FPartly sunny.6 mph68%30.09 "Hg10 mi
7:53 PM83 °FSunny.5 mph72%30.07 "Hg10 mi
Weather by CustomWeather, © 2014

See weather overviewHow to use our weather pages